Terug naar catalogus

STARLINK-4173

ActiefCommunicatieVLEO
NORAD 53285·PAYLOAD·🇺🇸 United States

Gelanceerd Jul 24, 2022 vanaf Cape Canaveral Space Force Station

Loading…

Volgende Passages (komende 24 uur)

TLE

VersSource: CelesTrak SupGP

Epoch: Sep 14, 2026, 21:35 UTC

1 53285C 22086AV  26257.89979167  .00033619  00000+0  96168-3 0  2570
2 53285  53.1603  39.5937 0001173  70.8093 133.8279 15.35388457    11

Volg STARLINK-4173 in realtime met AllMySat

Download on the App Store